Time,TemperatureF,DewpointF,PressureIn,WindDirection,WindDirectionDegrees,WindSpeedMPH,WindSpeedGustMPH,Humidity,HourlyPrecipIn,Conditions,Clouds,dailyrainin,SoftwareType,DateUTC
2013-03-16 00:00:00,49.5,35.3,29.84,NW,320,0.0,0.0,58,0.00,,,0.00,Wunderground v.1.13,2013-03-16 04:00:00,
2013-03-16 00:02:00,49.5,34.9,29.83,NW,320,0.0,0.0,57,0.00,,,0.00,Wunderground v.1.13,2013-03-16 04:02:00,
2013-03-16 00:06:00,49.2,35.0,29.83,NW,320,0.0,0.0,58,0.00,,,0.00,Wunderground v.1.13,2013-03-16 04:06:00,
2013-03-16 00:12:00,49.1,34.9,29.83,NW,320,0.0,0.0,58,0.00,,,0.00,Wunderground v.1.13,2013-03-16 04:12:00,
2013-03-16 00:18:00,48.9,35.2,29.83,NW,320,0.0,0.0,59,0.00,,,0.00,Wunderground v.1.13,2013-03-16 04:18:00,
2013-03-16 00:20:00,48.9,34.8,29.83,NW,320,0.0,0.0,58,0.00,,,0.00,Wunderground v.1.13,2013-03-16 04:20:00,
2013-03-16 00:28:00,48.9,34.8,29.83,NW,320,0.0,0.0,58,0.00,,,0.00,Wunderground v.1.13,2013-03-16 04:28:00,
2013-03-16 00:34:00,48.8,35.1,29.82,NW,320,0.0,0.0,59,0.00,,,0.00,Wunderground v.1.13,2013-03-16 04:34:00,
2013-03-16 00:40:00,48.3,34.6,29.82,NW,318,0.0,0.0,59,0.00,,,0.00,Wunderground v.1.13,2013-03-16 04:40:00,
2013-03-16 00:46:00,48.2,35.8,29.82,NW,320,0.0,0.0,62,0.00,,,0.00,Wunderground v.1.13,2013-03-16 04:46:00,
2013-03-16 00:52:00,47.9,35.1,29.82,NW,320,0.0,0.0,61,0.00,,,0.00,Wunderground v.1.13,2013-03-16 04:52:00,
2013-03-16 00:58:00,47.6,35.2,29.82,NW,320,0.0,0.0,62,0.00,,,0.00,Wunderground v.1.13,2013-03-16 04:58:00,
2013-03-16 01:04:00,47.6,35.6,29.81,NW,320,0.0,0.0,63,0.00,,,0.00,Wunderground v.1.13,2013-03-16 05:04:00,
2013-03-16 01:10:00,47.3,35.7,29.81,NW,320,0.0,0.0,64,0.00,,,0.00,Wunderground v.1.13,2013-03-16 05:10:00,
2013-03-16 01:16:00,47.1,35.9,29.81,NW,320,0.0,0.0,65,0.00,,,0.00,Wunderground v.1.13,2013-03-16 05:16:00,
2013-03-16 01:23:00,47.3,36.1,29.81,NW,320,0.0,0.0,65,0.00,,,0.00,Wunderground v.1.13,2013-03-16 05:23:00,
2013-03-16 01:28:00,47.1,35.9,29.81,NW,320,0.0,0.0,65,0.00,,,0.00,Wunderground v.1.13,2013-03-16 05:28:00,
2013-03-16 01:34:00,47.9,35.9,29.80,NW,320,0.0,0.0,63,0.00,,,0.00,Wunderground v.1.13,2013-03-16 05:34:00,
2013-03-16 01:40:00,48.0,35.6,29.80,NW,320,0.0,0.0,62,0.00,,,0.00,Wunderground v.1.13,2013-03-16 05:40:00,
2013-03-16 01:46:00,48.0,36.0,29.80,NW,320,0.0,0.0,63,0.00,,,0.00,Wunderground v.1.13,2013-03-16 05:46:00,
2013-03-16 01:54:00,47.7,36.1,29.80,NW,320,0.0,0.0,64,0.00,,,0.00,Wunderground v.1.13,2013-03-16 05:54:00,
2013-03-16 02:00:00,47.9,35.9,29.80,NW,320,0.0,0.0,63,0.00,,,0.00,Wunderground v.1.13,2013-03-16 06:00:00,
2013-03-16 02:06:00,48.0,35.6,29.80,NW,320,0.0,0.0,62,0.00,,,0.00,Wunderground v.1.13,2013-03-16 06:06:00,
2013-03-16 02:12:00,48.0,35.6,29.80,NW,320,0.0,0.0,62,0.00,,,0.00,Wunderground v.1.13,2013-03-16 06:12:00,
2013-03-16 02:18:00,48.3,35.9,29.80,NW,320,0.0,0.0,62,0.00,,,0.00,Wunderground v.1.13,2013-03-16 06:18:00,
2013-03-16 02:24:00,48.0,36.0,29.80,NW,320,0.0,0.0,63,0.00,,,0.00,Wunderground v.1.13,2013-03-16 06:24:00,
2013-03-16 02:30:00,48.3,35.9,29.80,NW,320,0.0,0.0,62,0.00,,,0.00,Wunderground v.1.13,2013-03-16 06:30:00,
2013-03-16 02:36:00,48.6,35.7,29.79,NW,320,0.0,0.0,61,0.00,,,0.00,Wunderground v.1.13,2013-03-16 06:36:00,
2013-03-16 02:42:00,48.6,36.2,29.79,NW,320,0.0,0.0,62,0.00,,,0.00,Wunderground v.1.13,2013-03-16 06:42:00,
2013-03-16 02:48:00,48.5,36.1,29.79,NW,320,0.0,0.0,62,0.00,,,0.00,Wunderground v.1.13,2013-03-16 06:48:00,
2013-03-16 02:54:00,48.8,35.9,29.79,NW,320,0.0,0.0,61,0.00,,,0.00,Wunderground v.1.13,2013-03-16 06:54:00,
2013-03-16 03:00:00,49.2,36.7,29.79,NW,320,0.0,0.0,62,0.00,,,0.00,Wunderground v.1.13,2013-03-16 07:00:00,
2013-03-16 03:06:00,49.1,37.0,29.78,NW,320,0.0,0.0,63,0.00,,,0.00,Wunderground v.1.13,2013-03-16 07:06:00,
2013-03-16 03:12:00,49.2,36.3,29.78,NW,320,0.0,0.0,61,0.00,,,0.00,Wunderground v.1.13,2013-03-16 07:12:00,
2013-03-16 03:18:00,49.2,36.7,29.78,NW,320,0.0,0.0,62,0.00,,,0.00,Wunderground v.1.13,2013-03-16 07:18:00,
2013-03-16 03:24:00,48.8,37.2,29.78,NW,320,0.0,0.0,64,0.00,,,0.00,Wunderground v.1.13,2013-03-16 07:24:00,
2013-03-16 03:30:00,48.6,36.6,29.78,NW,320,0.0,0.0,63,0.00,,,0.00,Wunderground v.1.13,2013-03-16 07:30:00,
2013-03-16 03:36:00,48.8,36.8,29.77,NW,320,0.0,0.0,63,0.00,,,0.00,Wunderground v.1.13,2013-03-16 07:36:00,
2013-03-16 03:42:00,48.9,36.9,29.77,NW,320,0.0,0.0,63,0.00,,,0.00,Wunderground v.1.13,2013-03-16 07:42:00,
2013-03-16 03:48:00,49.1,37.0,29.77,NW,320,0.0,0.0,63,0.00,,,0.00,Wunderground v.1.13,2013-03-16 07:48:00,
2013-03-16 03:54:00,48.8,36.8,29.77,NW,320,0.0,0.0,63,0.00,,,0.00,Wunderground v.1.13,2013-03-16 07:54:00,
2013-03-16 04:00:00,48.8,37.2,29.77,NW,320,0.0,0.0,64,0.00,,,0.00,Wunderground v.1.13,2013-03-16 08:00:00,
2013-03-16 04:06:00,48.6,37.4,29.76,NW,320,0.0,0.0,65,0.00,,,0.00,Wunderground v.1.13,2013-03-16 08:06:00,
2013-03-16 04:12:00,48.6,37.4,29.76,NW,320,0.0,0.0,65,0.00,,,0.00,Wunderground v.1.13,2013-03-16 08:12:00,
2013-03-16 04:18:00,48.5,37.3,29.76,NW,320,0.0,0.0,65,0.00,,,0.00,Wunderground v.1.13,2013-03-16 08:18:00,
2013-03-16 04:24:00,48.8,37.2,29.76,NW,320,0.0,0.0,64,0.00,,,0.00,Wunderground v.1.13,2013-03-16 08:24:00,
2013-03-16 04:30:00,48.8,37.2,29.76,NW,320,0.0,0.0,64,0.00,,,0.00,Wunderground v.1.13,2013-03-16 08:30:00,
2013-03-16 04:36:00,48.9,37.3,29.76,NW,320,0.0,0.0,64,0.00,,,0.00,Wunderground v.1.13,2013-03-16 08:36:00,
2013-03-16 04:42:00,49.2,37.1,29.76,NW,320,0.0,0.0,63,0.00,,,0.00,Wunderground v.1.13,2013-03-16 08:42:00,
2013-03-16 04:48:00,49.2,37.5,29.75,NW,320,0.0,0.0,64,0.00,,,0.00,Wunderground v.1.13,2013-03-16 08:48:00,
2013-03-16 04:54:00,49.1,37.4,29.75,NW,320,0.0,0.0,64,0.00,,,0.00,Wunderground v.1.13,2013-03-16 08:54:00,
2013-03-16 05:00:00,49.2,37.5,29.75,NW,320,0.0,0.0,64,0.00,,,0.00,Wunderground v.1.13,2013-03-16 09:00:00,
2013-03-16 05:06:00,49.6,37.5,29.75,NW,320,0.0,0.0,63,0.00,,,0.00,Wunderground v.1.13,2013-03-16 09:06:00,
2013-03-16 05:12:00,49.5,37.4,29.75,NW,320,0.0,0.0,63,0.00,,,0.00,Wunderground v.1.13,2013-03-16 09:12:00,
2013-03-16 05:18:00,49.4,37.7,29.75,NW,320,0.0,0.0,64,0.00,,,0.00,Wunderground v.1.13,2013-03-16 09:18:00,
2013-03-16 05:24:00,49.1,37.8,29.75,NW,320,0.0,0.0,65,0.00,,,0.00,Wunderground v.1.13,2013-03-16 09:24:00,
2013-03-16 05:30:00,49.1,37.8,29.75,NW,320,0.0,0.0,65,0.00,,,0.00,Wunderground v.1.13,2013-03-16 09:30:00,
2013-03-16 05:36:00,48.9,38.0,29.75,SSW,210,0.0,0.0,66,0.00,,,0.00,Wunderground v.1.13,2013-03-16 09:36:00,
2013-03-16 05:42:00,49.1,37.8,29.75,West,261,0.0,0.0,65,0.00,,,0.00,Wunderground v.1.13,2013-03-16 09:42:00,
2013-03-16 05:48:00,49.4,38.1,29.75,West,261,0.0,0.0,65,0.00,,,0.00,Wunderground v.1.13,2013-03-16 09:48:00,
2013-03-16 05:54:00,49.4,38.5,29.75,West,261,0.0,0.0,66,0.00,,,0.00,Wunderground v.1.13,2013-03-16 09:54:00,
2013-03-16 06:00:00,49.5,38.2,29.75,West,261,0.0,0.0,65,0.00,,,0.00,Wunderground v.1.13,2013-03-16 10:00:00,
2013-03-16 06:07:00,49.2,38.3,29.76,West,261,0.0,0.0,66,0.00,,,0.00,Wunderground v.1.13,2013-03-16 10:07:00,
2013-03-16 06:12:00,49.2,38.3,29.76,West,261,0.0,0.0,66,0.00,,,0.00,Wunderground v.1.13,2013-03-16 10:12:00,
2013-03-16 06:18:00,49.1,38.2,29.76,West,261,0.0,0.0,66,0.00,,,0.00,Wunderground v.1.13,2013-03-16 10:18:00,
2013-03-16 06:24:00,48.8,38.3,29.76,West,261,0.0,0.0,67,0.00,,,0.00,Wunderground v.1.13,2013-03-16 10:24:00,
2013-03-16 06:30:00,48.2,38.5,29.76,WNW,289,0.0,0.0,69,0.00,,,0.00,Wunderground v.1.13,2013-03-16 10:30:00,
2013-03-16 06:36:00,47.7,38.4,29.76,WNW,289,0.0,0.0,70,0.00,,,0.00,Wunderground v.1.13,2013-03-16 10:36:00,
2013-03-16 06:42:00,47.7,38.4,29.76,WNW,289,0.0,0.0,70,0.00,,,0.00,Wunderground v.1.13,2013-03-16 10:42:00,
2013-03-16 06:48:00,47.6,38.7,29.76,WNW,289,0.0,0.0,71,0.00,,,0.00,Wunderground v.1.13,2013-03-16 10:48:00,
2013-03-16 06:54:00,47.4,38.5,29.76,WNW,289,0.0,0.0,71,0.00,,,0.00,Wunderground v.1.13,2013-03-16 10:54:00,
2013-03-16 07:00:00,47.4,38.5,29.76,WNW,289,0.0,0.0,71,0.00,,,0.00,Wunderground v.1.13,2013-03-16 11:00:00,
2013-03-16 07:10:00,47.4,38.5,29.77,WNW,289,0.0,0.0,71,0.00,,,0.00,Wunderground v.1.13,2013-03-16 11:10:00,
2013-03-16 07:16:00,47.4,38.5,29.77,WNW,289,0.0,0.0,71,0.00,,,0.00,Wunderground v.1.13,2013-03-16 11:16:00,
2013-03-16 07:22:00,47.4,38.5,29.77,WNW,289,0.0,0.0,71,0.00,,,0.00,Wunderground v.1.13,2013-03-16 11:22:00,
2013-03-16 07:28:00,47.4,38.8,29.77,WNW,289,0.0,0.0,72,0.00,,,0.00,Wunderground v.1.13,2013-03-16 11:28:00,
2013-03-16 07:34:00,47.6,39.0,29.77,WNW,289,0.0,0.0,72,0.00,,,0.00,Wunderground v.1.13,2013-03-16 11:34:00,
2013-03-16 07:40:00,47.7,39.1,29.77,WNW,289,0.0,0.0,72,0.00,,,0.00,Wunderground v.1.13,2013-03-16 11:40:00,
2013-03-16 07:46:00,48.2,39.6,29.76,WNW,289,0.0,0.0,72,0.00,,,0.00,Wunderground v.1.13,2013-03-16 11:46:00,
2013-03-16 07:54:00,48.6,39.6,29.76,WSW,253,0.0,0.0,71,0.00,,,0.00,Wunderground v.1.13,2013-03-16 11:54:00,
2013-03-16 08:00:00,48.9,39.5,29.76,WSW,253,0.0,0.0,70,0.00,,,0.00,Wunderground v.1.13,2013-03-16 12:00:00,
2013-03-16 08:06:00,49.4,40.0,29.76,WSW,253,0.0,0.0,70,0.00,,,0.00,Wunderground v.1.13,2013-03-16 12:06:00,
2013-03-16 08:12:00,49.6,40.2,29.76,WSW,253,0.0,0.0,70,0.00,,,0.00,Wunderground v.1.13,2013-03-16 12:12:00,
2013-03-16 08:18:00,50.1,40.7,29.76,WSW,253,0.0,0.0,70,0.00,,,0.00,Wunderground v.1.13,2013-03-16 12:18:00,
2013-03-16 08:24:00,50.5,40.7,29.76,WSW,253,0.0,0.0,69,0.00,,,0.00,Wunderground v.1.13,2013-03-16 12:24:00,
2013-03-16 08:30:00,51.0,40.8,29.76,WSW,253,0.0,0.0,68,0.00,,,0.00,Wunderground v.1.13,2013-03-16 12:30:00,
2013-03-16 08:36:00,51.3,41.1,29.77,WSW,253,0.0,0.0,68,0.00,,,0.00,Wunderground v.1.13,2013-03-16 12:36:00,
2013-03-16 08:42:00,51.7,41.5,29.77,WSW,253,0.0,0.0,68,0.00,,,0.00,Wunderground v.1.13,2013-03-16 12:42:00,
2013-03-16 08:48:00,52.0,41.4,29.77,WSW,253,0.0,0.0,67,0.00,,,0.00,Wunderground v.1.13,2013-03-16 12:48:00,
2013-03-16 08:54:00,52.2,41.6,29.77,SW,229,0.0,0.0,67,0.00,,,0.00,Wunderground v.1.13,2013-03-16 12:54:00,
2013-03-16 09:00:00,52.5,41.9,29.77,SW,229,0.0,0.0,67,0.00,,,0.00,Wunderground v.1.13,2013-03-16 13:00:00,
2013-03-16 09:06:00,52.8,41.7,29.77,SW,229,0.0,0.0,66,0.00,,,0.00,Wunderground v.1.13,2013-03-16 13:06:00,
2013-03-16 09:12:00,53.1,42.0,29.77,SW,233,0.0,1.0,66,0.00,,,0.00,Wunderground v.1.13,2013-03-16 13:12:00,
2013-03-16 09:18:00,53.3,42.6,29.76,SW,217,0.0,1.0,67,0.00,,,0.00,Wunderground v.1.13,2013-03-16 13:18:00,
2013-03-16 09:24:00,53.5,42.0,29.76,West,265,1.0,1.0,65,0.00,,,0.00,Wunderground v.1.13,2013-03-16 13:24:00,
2013-03-16 09:30:00,53.8,42.7,29.76,West,265,0.0,0.0,66,0.00,,,0.00,Wunderground v.1.13,2013-03-16 13:30:00,
2013-03-16 09:36:00,54.1,42.6,29.77,South,185,0.0,0.0,65,0.00,,,0.00,Wunderground v.1.13,2013-03-16 13:36:00,
2013-03-16 09:42:00,54.2,43.5,29.77,South,185,0.0,0.0,67,0.00,,,0.00,Wunderground v.1.13,2013-03-16 13:42:00,
2013-03-16 09:48:00,54.5,43.0,29.76,South,186,0.0,0.0,65,0.00,,,0.00,Wunderground v.1.13,2013-03-16 13:48:00,
2013-03-16 09:54:00,54.8,43.3,29.76,West,272,0.0,0.0,65,0.00,,,0.00,Wunderground v.1.13,2013-03-16 13:54:00,
2013-03-16 10:00:00,55.1,43.5,29.76,West,272,0.0,0.0,65,0.00,,,0.00,Wunderground v.1.13,2013-03-16 14:00:00,
2013-03-16 10:06:00,55.9,43.5,29.76,SSW,210,0.0,0.0,63,0.00,,,0.00,Wunderground v.1.13,2013-03-16 14:06:00,
2013-03-16 10:12:00,56.9,44.0,29.76,SW,229,0.0,2.0,62,0.00,,,0.00,Wunderground v.1.13,2013-03-16 14:12:00,
2013-03-16 10:18:00,58.1,44.3,29.75,South,171,0.0,0.0,60,0.00,,,0.00,Wunderground v.1.13,2013-03-16 14:18:00,
2013-03-16 10:24:00,58.9,44.6,29.75,SSW,196,1.0,1.0,59,0.00,,,0.00,Wunderground v.1.13,2013-03-16 14:24:00,
2013-03-16 10:30:00,59.2,44.4,29.75,West,265,1.0,1.0,58,0.00,,,0.00,Wunderground v.1.13,2013-03-16 14:30:00,
2013-03-16 10:36:00,59.6,44.3,29.75,SW,232,2.0,2.0,57,0.00,,,0.00,Wunderground v.1.13,2013-03-16 14:36:00,
2013-03-16 10:42:00,60.2,45.4,29.75,WSW,256,1.0,1.0,58,0.00,,,0.00,Wunderground v.1.13,2013-03-16 14:42:00,
2013-03-16 10:48:00,60.5,44.7,29.75,WNW,287,0.0,0.0,56,0.00,,,0.00,Wunderground v.1.13,2013-03-16 14:48:00,
2013-03-16 10:54:00,60.5,44.7,29.75,WSW,258,1.0,1.0,56,0.00,,,0.00,Wunderground v.1.13,2013-03-16 14:54:00,
2013-03-16 11:00:00,60.5,44.7,29.75,SSW,193,1.0,1.0,56,0.00,,,0.00,Wunderground v.1.13,2013-03-16 15:00:00,
2013-03-16 11:06:00,60.7,44.4,29.74,WSW,250,1.0,1.0,55,0.00,,,0.00,Wunderground v.1.13,2013-03-16 15:06:00,
2013-03-16 11:12:00,61.0,44.7,29.74,West,274,1.0,2.0,55,0.00,,,0.00,Wunderground v.1.13,2013-03-16 15:12:00,
2013-03-16 11:18:00,61.5,45.2,29.73,South,185,1.0,3.0,55,0.00,,,0.00,Wunderground v.1.13,2013-03-16 15:18:00,
2013-03-16 11:24:00,62.4,45.5,29.73,West,274,0.0,0.0,54,0.00,,,0.00,Wunderground v.1.13,2013-03-16 15:24:00,
2013-03-16 11:30:00,63.2,45.3,29.73,SW,219,1.0,1.0,52,0.00,,,0.00,Wunderground v.1.13,2013-03-16 15:30:00,
2013-03-16 11:36:00,63.9,45.4,29.73,South,189,1.0,1.0,51,0.00,,,0.00,Wunderground v.1.13,2013-03-16 15:36:00,
2013-03-16 11:42:00,64.3,45.3,29.73,SSW,208,0.0,3.0,50,0.00,,,0.00,Wunderground v.1.13,2013-03-16 15:42:00,
2013-03-16 11:48:00,64.2,45.7,29.72,SSW,210,1.0,1.0,51,0.00,,,0.00,Wunderground v.1.13,2013-03-16 15:48:00,
2013-03-16 11:54:00,65.0,46.4,29.72,SW,223,2.0,4.0,51,0.00,,,0.00,Wunderground v.1.13,2013-03-16 15:54:00,
2013-03-16 12:00:00,65.2,46.1,29.72,WSW,258,1.0,1.0,50,0.00,,,0.00,Wunderground v.1.13,2013-03-16 16:00:00,
2013-03-16 12:10:00,66.1,46.4,29.71,SSW,193,1.0,1.0,49,0.00,,,0.00,Wunderground v.1.13,2013-03-16 16:10:00,
2013-03-16 12:16:00,65.8,46.1,29.70,SSW,198,1.0,2.0,49,0.00,,,0.00,Wunderground v.1.13,2013-03-16 16:16:00,
2013-03-16 12:23:00,67.6,46.6,29.70,SW,230,0.0,1.0,47,0.00,,,0.00,Wunderground v.1.13,2013-03-16 16:23:00,
2013-03-16 12:28:00,67.6,46.6,29.70,SSW,195,1.0,1.0,47,0.00,,,0.00,Wunderground v.1.13,2013-03-16 16:28:00,
2013-03-16 12:34:00,68.4,46.8,29.70,SSW,208,1.0,1.0,46,0.00,,,0.00,Wunderground v.1.13,2013-03-16 16:34:00,
2013-03-16 12:40:00,68.6,46.4,29.70,SSW,193,0.0,0.0,45,0.00,,,0.00,Wunderground v.1.13,2013-03-16 16:40:00,
2013-03-16 12:46:00,68.1,46.5,29.70,SSW,203,2.0,6.0,46,0.00,,,0.00,Wunderground v.1.13,2013-03-16 16:46:00,
2013-03-16 12:54:00,68.3,46.7,29.70,SW,232,1.0,1.0,46,0.00,,,0.00,Wunderground v.1.13,2013-03-16 16:54:00,
2013-03-16 13:00:00,69.1,47.4,29.70,SE,145,1.0,1.0,46,0.00,,,0.00,Wunderground v.1.13,2013-03-16 17:00:00,
2013-03-16 13:06:00,70.6,47.0,29.69,West,280,0.0,0.0,43,0.00,,,0.00,Wunderground v.1.13,2013-03-16 17:06:00,
2013-03-16 13:12:00,71.8,46.8,29.69,SSW,195,0.0,0.0,41,0.00,,,0.00,Wunderground v.1.13,2013-03-16 17:12:00,
2013-03-16 13:18:00,71.5,47.2,29.68,SSE,155,0.0,0.0,42,0.00,,,0.00,Wunderground v.1.13,2013-03-16 17:18:00,
2013-03-16 13:24:00,71.6,47.3,29.68,South,185,0.0,0.0,42,0.00,,,0.00,Wunderground v.1.13,2013-03-16 17:24:00,
2013-03-16 13:30:00,71.8,48.1,29.68,SSW,200,0.0,0.0,43,0.00,,,0.00,Wunderground v.1.13,2013-03-16 17:30:00,
2013-03-16 13:36:00,72.3,49.2,29.68,SW,222,0.0,0.0,44,0.00,,,0.00,Wunderground v.1.13,2013-03-16 17:36:00,
2013-03-16 13:42:00,73.5,47.7,29.68,SW,233,0.0,0.0,40,0.00,,,0.00,Wunderground v.1.13,2013-03-16 17:42:00,
2013-03-16 13:48:00,74.2,46.2,29.67,SSW,200,1.0,5.0,37,0.00,,,0.00,Wunderground v.1.13,2013-03-16 17:48:00,
2013-03-16 13:54:00,73.5,45.6,29.67,WSW,250,3.0,4.0,37,0.00,,,0.00,Wunderground v.1.13,2013-03-16 17:54:00,
2013-03-16 14:00:00,73.2,46.1,29.67,SSW,193,2.0,2.0,38,0.00,,,0.00,Wunderground v.1.13,2013-03-16 18:00:00,
2013-03-16 14:06:00,73.5,47.0,29.66,SSW,203,2.0,2.0,39,0.00,,,0.00,Wunderground v.1.13,2013-03-16 18:06:00,
2013-03-16 14:12:00,73.3,46.2,29.66,WSW,246,2.0,2.0,38,0.00,,,0.00,Wunderground v.1.13,2013-03-16 18:12:00,
2013-03-16 14:18:00,73.3,46.2,29.65,WSW,256,3.0,3.0,38,0.00,,,0.00,Wunderground v.1.13,2013-03-16 18:18:00,
2013-03-16 14:24:00,74.2,46.2,29.65,SW,236,2.0,5.0,37,0.00,,,0.00,Wunderground v.1.13,2013-03-16 18:24:00,
2013-03-16 14:30:00,74.9,46.9,29.65,SW,232,1.0,7.0,37,0.00,,,0.00,Wunderground v.1.13,2013-03-16 18:30:00,
2013-03-16 14:36:00,74.9,46.9,29.65,SSW,212,3.0,3.0,37,0.00,,,0.00,Wunderground v.1.13,2013-03-16 18:36:00,
2013-03-16 14:42:00,74.9,46.1,29.65,West,270,3.0,5.0,36,0.00,,,0.00,Wunderground v.1.13,2013-03-16 18:42:00,
2013-03-16 14:48:00,75.3,46.5,29.64,WSW,258,3.0,3.0,36,0.00,,,0.00,Wunderground v.1.13,2013-03-16 18:48:00,
2013-03-16 14:54:00,75.6,46.0,29.64,SSW,205,4.0,4.0,35,0.00,,,0.00,Wunderground v.1.13,2013-03-16 18:54:00,
2013-03-16 15:00:00,76.1,45.7,29.64,WNW,298,3.0,3.0,34,0.00,,,0.00,Wunderground v.1.13,2013-03-16 19:00:00,
2013-03-16 15:06:00,76.1,45.7,29.63,WSW,244,4.0,5.0,34,0.00,,,0.00,Wunderground v.1.13,2013-03-16 19:06:00,
2013-03-16 15:12:00,76.3,45.1,29.63,WSW,240,4.0,5.0,33,0.00,,,0.00,Wunderground v.1.13,2013-03-16 19:12:00,
2013-03-16 15:18:00,76.8,46.3,29.62,WSW,240,3.0,3.0,34,0.00,,,0.00,Wunderground v.1.13,2013-03-16 19:18:00,
2013-03-16 15:24:00,76.7,46.2,29.62,SW,233,2.0,2.0,34,0.00,,,0.00,Wunderground v.1.13,2013-03-16 19:24:00,
2013-03-16 15:30:00,76.7,47.7,29.62,SW,233,2.0,2.0,36,0.00,,,0.00,Wunderground v.1.13,2013-03-16 19:30:00,
2013-03-16 15:36:00,77.0,46.5,29.62,West,277,0.0,0.0,34,0.00,,,0.00,Wunderground v.1.13,2013-03-16 19:36:00,
2013-03-16 15:42:00,77.0,45.7,29.62,SSW,202,2.0,2.0,33,0.00,,,0.00,Wunderground v.1.13,2013-03-16 19:42:00,
2013-03-16 15:48:00,77.4,46.0,29.61,West,274,2.0,7.0,33,0.00,,,0.00,Wunderground v.1.13,2013-03-16 19:48:00,
2013-03-16 15:54:00,77.4,45.2,29.61,SW,236,3.0,3.0,32,0.00,,,0.00,Wunderground v.1.13,2013-03-16 19:54:00,
2013-03-16 16:00:00,77.7,46.3,29.61,West,274,3.0,3.0,33,0.00,,,0.00,Wunderground v.1.13,2013-03-16 20:00:00,
2013-03-16 16:06:00,78.5,46.2,29.61,South,171,3.0,3.0,32,0.00,,,0.00,Wunderground v.1.13,2013-03-16 20:06:00,
2013-03-16 16:12:00,78.6,46.3,29.61,SW,234,2.0,2.0,32,0.00,,,0.00,Wunderground v.1.13,2013-03-16 20:12:00,
2013-03-16 16:18:00,78.5,45.3,29.60,West,264,3.0,6.0,31,0.00,,,0.00,Wunderground v.1.13,2013-03-16 20:18:00,
2013-03-16 16:24:00,78.3,46.0,29.60,South,174,2.0,6.0,32,0.00,,,0.00,Wunderground v.1.13,2013-03-16 20:24:00,
2013-03-16 16:30:00,78.3,44.3,29.60,SW,222,2.0,2.0,30,0.00,,,0.00,Wunderground v.1.13,2013-03-16 20:30:00,
2013-03-16 16:36:00,78.5,46.2,29.60,SSW,198,3.0,9.0,32,0.00,,,0.00,Wunderground v.1.13,2013-03-16 20:36:00,
2013-03-16 16:42:00,78.5,44.5,29.60,SSW,200,3.0,3.0,30,0.00,,,0.00,Wunderground v.1.13,2013-03-16 20:42:00,
2013-03-16 16:48:00,78.3,44.3,29.59,SW,224,2.0,2.0,30,0.00,,,0.00,Wunderground v.1.13,2013-03-16 20:48:00,
2013-03-16 16:54:00,78.3,46.0,29.59,SSW,206,2.0,2.0,32,0.00,,,0.00,Wunderground v.1.13,2013-03-16 20:54:00,
2013-03-16 17:00:00,78.1,45.8,29.59,WNW,292,1.0,1.0,32,0.00,,,0.00,Wunderground v.1.13,2013-03-16 21:00:00,
2013-03-16 17:06:00,78.1,45.0,29.59,North,357,1.0,1.0,31,0.00,,,0.00,Wunderground v.1.13,2013-03-16 21:06:00,
2013-03-16 17:12:00,77.9,44.8,29.59,SW,219,3.0,3.0,31,0.00,,,0.00,Wunderground v.1.13,2013-03-16 21:12:00,
2013-03-16 17:18:00,77.7,45.5,29.58,WSW,239,4.0,6.0,32,0.00,,,0.00,Wunderground v.1.13,2013-03-16 21:18:00,
2013-03-16 17:24:00,77.7,46.3,29.58,SSW,212,3.0,3.0,33,0.00,,,0.00,Wunderground v.1.13,2013-03-16 21:24:00,
2013-03-16 17:30:00,77.4,46.0,29.58,SSW,195,1.0,1.0,33,0.00,,,0.00,Wunderground v.1.13,2013-03-16 21:30:00,
2013-03-16 17:36:00,77.4,45.2,29.58,West,277,0.0,0.0,32,0.00,,,0.00,Wunderground v.1.13,2013-03-16 21:36:00,
2013-03-16 17:42:00,77.4,45.2,29.58,SW,223,1.0,5.0,32,0.00,,,0.00,Wunderground v.1.13,2013-03-16 21:42:00,
2013-03-16 17:48:00,77.4,45.2,29.57,SW,216,3.0,3.0,32,0.00,,,0.00,Wunderground v.1.13,2013-03-16 21:48:00,
2013-03-16 17:54:00,76.8,44.7,29.57,WSW,257,1.0,5.0,32,0.00,,,0.00,Wunderground v.1.13,2013-03-16 21:54:00,
2013-03-16 18:00:00,76.7,44.6,29.57,WNW,296,1.0,1.0,32,0.00,,,0.00,Wunderground v.1.13,2013-03-16 22:00:00,
2013-03-16 18:06:00,76.3,44.3,29.57,WNW,301,0.0,0.0,32,0.00,,,0.00,Wunderground v.1.13,2013-03-16 22:06:00,
2013-03-16 18:12:00,76.1,45.7,29.57,WSW,256,0.0,0.0,34,0.00,,,0.00,Wunderground v.1.13,2013-03-16 22:12:00,
2013-03-16 18:18:00,76.1,44.9,29.57,WSW,246,0.0,0.0,33,0.00,,,0.00,Wunderground v.1.13,2013-03-16 22:18:00,
2013-03-16 18:24:00,76.0,45.6,29.57,SW,233,0.0,0.0,34,0.00,,,0.00,Wunderground v.1.13,2013-03-16 22:24:00,
2013-03-16 18:30:00,75.8,45.4,29.58,WSW,248,0.0,0.0,34,0.00,,,0.00,Wunderground v.1.13,2013-03-16 22:30:00,
2013-03-16 18:36:00,75.3,45.7,29.58,NW,306,0.0,0.0,35,0.00,,,0.00,Wunderground v.1.13,2013-03-16 22:36:00,
2013-03-16 18:42:00,75.3,45.0,29.58,SSW,202,0.0,0.0,34,0.00,,,0.00,Wunderground v.1.13,2013-03-16 22:42:00,
2013-03-16 18:48:00,75.3,45.0,29.59,WNW,302,1.0,4.0,34,0.00,,,0.00,Wunderground v.1.13,2013-03-16 22:48:00,
2013-03-16 18:54:00,75.1,44.8,29.59,SW,223,0.0,0.0,34,0.00,,,0.00,Wunderground v.1.13,2013-03-16 22:54:00,
2013-03-16 19:00:00,74.9,45.4,29.59,NW,309,0.0,2.0,35,0.00,,,0.00,Wunderground v.1.13,2013-03-16 23:00:00,
2013-03-16 19:07:00,75.3,45.0,29.59,WSW,254,1.0,1.0,34,0.00,,,0.00,Wunderground v.1.13,2013-03-16 23:07:00,
2013-03-16 19:12:00,74.7,45.2,29.59,South,185,0.0,0.0,35,0.00,,,0.00,Wunderground v.1.13,2013-03-16 23:12:00,
2013-03-16 19:18:00,74.2,45.5,29.59,SW,223,0.0,0.0,36,0.00,,,0.00,Wunderground v.1.13,2013-03-16 23:18:00,
2013-03-16 19:24:00,74.0,45.3,29.59,SW,236,0.0,0.0,36,0.00,,,0.00,Wunderground v.1.13,2013-03-16 23:24:00,
2013-03-16 19:30:00,73.9,44.5,29.59,South,189,0.0,0.0,35,0.00,,,0.00,Wunderground v.1.13,2013-03-16 23:30:00,
2013-03-16 19:36:00,73.7,44.3,29.60,West,270,0.0,0.0,35,0.00,,,0.00,Wunderground v.1.13,2013-03-16 23:36:00,
2013-03-16 19:42:00,73.3,45.4,29.60,West,275,0.0,0.0,37,0.00,,,0.00,Wunderground v.1.13,2013-03-16 23:42:00,
2013-03-16 19:48:00,73.0,45.2,29.61,West,263,0.0,0.0,37,0.00,,,0.00,Wunderground v.1.13,2013-03-16 23:48:00,
2013-03-16 19:54:00,72.1,46.4,29.61,West,263,0.0,0.0,40,0.00,,,0.00,Wunderground v.1.13,2013-03-16 23:54:00,
2013-03-16 20:00:00,71.6,45.3,29.61,West,270,0.0,0.0,39,0.00,,,0.00,Wunderground v.1.13,2013-03-17 00:00:00,
2013-03-16 20:07:00,71.3,45.7,29.63,WSW,239,0.0,7.0,40,0.00,,,0.00,Wunderground v.1.13,2013-03-17 00:07:00,
2013-03-16 20:12:00,71.1,45.5,29.63,West,268,0.0,0.0,40,0.00,,,0.00,Wunderground v.1.13,2013-03-17 00:12:00,
2013-03-16 20:18:00,71.5,45.2,29.65,NE,54,0.0,0.0,39,0.00,,,0.00,Wunderground v.1.13,2013-03-17 00:18:00,
2013-03-16 20:24:00,72.1,45.1,29.65,NNW,344,0.0,0.0,38,0.00,,,0.00,Wunderground v.1.13,2013-03-17 00:24:00,
2013-03-16 20:30:00,72.5,45.4,29.65,NNW,333,0.0,0.0,38,0.00,,,0.00,Wunderground v.1.13,2013-03-17 00:30:00,
2013-03-16 20:36:00,72.5,45.4,29.68,NNW,330,0.0,0.0,38,0.00,,,0.00,Wunderground v.1.13,2013-03-17 00:36:00,
2013-03-16 20:42:00,72.3,45.9,29.68,NNW,342,1.0,1.0,39,0.00,,,0.00,Wunderground v.1.13,2013-03-17 00:42:00,
2013-03-16 20:48:00,72.1,47.1,29.70,NNW,343,1.0,1.0,41,0.00,,,0.00,Wunderground v.1.13,2013-03-17 00:48:00,
2013-03-16 20:54:00,71.8,48.1,29.70,NNW,340,1.0,1.0,43,0.00,,,0.00,Wunderground v.1.13,2013-03-17 00:54:00,
2013-03-16 21:00:00,71.6,48.5,29.70,NNW,347,1.0,1.0,44,0.00,,,0.00,Wunderground v.1.13,2013-03-17 01:00:00,
2013-03-16 21:06:00,71.3,49.4,29.71,NNW,346,1.0,1.0,46,0.00,,,0.00,Wunderground v.1.13,2013-03-17 01:06:00,
2013-03-16 21:12:00,71.1,49.8,29.71,NW,325,0.0,0.0,47,0.00,,,0.00,Wunderground v.1.13,2013-03-17 01:12:00,
2013-03-16 21:18:00,70.9,50.2,29.71,NNW,330,0.0,0.0,48,0.00,,,0.00,Wunderground v.1.13,2013-03-17 01:18:00,
2013-03-16 21:24:00,70.9,50.2,29.71,North,357,0.0,0.0,48,0.00,,,0.00,Wunderground v.1.13,2013-03-17 01:24:00,
2013-03-16 21:30:00,70.8,50.7,29.71,NNW,347,0.0,0.0,49,0.00,,,0.00,Wunderground v.1.13,2013-03-17 01:30:00,
2013-03-16 21:36:00,70.6,51.1,29.72,NNW,347,0.0,0.0,50,0.00,,,0.00,Wunderground v.1.13,2013-03-17 01:36:00,
2013-03-16 21:42:00,70.4,51.4,29.72,NNW,347,0.0,0.0,51,0.00,,,0.00,Wunderground v.1.13,2013-03-17 01:42:00,
2013-03-16 21:48:00,70.3,51.3,29.73,NNW,347,0.0,0.0,51,0.00,,,0.00,Wunderground v.1.13,2013-03-17 01:48:00,
2013-03-16 21:54:00,69.9,51.5,29.73,NNW,347,0.0,0.0,52,0.00,,,0.00,Wunderground v.1.13,2013-03-17 01:54:00,
2013-03-16 22:00:00,69.6,51.2,29.73,NNW,347,0.0,0.0,52,0.00,,,0.00,Wunderground v.1.13,2013-03-17 02:00:00,
2013-03-16 22:06:00,69.4,51.5,29.74,NNW,347,0.0,0.0,53,0.00,,,0.00,Wunderground v.1.13,2013-03-17 02:06:00,
2013-03-16 22:12:00,69.1,51.8,29.74,NNW,347,0.0,0.0,54,0.00,,,0.00,Wunderground v.1.13,2013-03-17 02:12:00,
2013-03-16 22:18:00,68.9,51.6,29.74,NNW,347,0.0,0.0,54,0.00,,,0.00,Wunderground v.1.13,2013-03-17 02:18:00,
2013-03-16 22:24:00,68.6,51.8,29.74,NNW,347,0.0,0.0,55,0.00,,,0.00,Wunderground v.1.13,2013-03-17 02:24:00,
2013-03-16 22:30:00,67.9,51.6,29.74,NNW,347,0.0,0.0,56,0.00,,,0.00,Wunderground v.1.13,2013-03-17 02:30:00,
2013-03-16 22:36:00,67.4,51.6,29.74,NNW,347,0.0,0.0,57,0.00,,,0.00,Wunderground v.1.13,2013-03-17 02:36:00,
2013-03-16 22:42:00,67.1,51.4,29.74,NNW,347,0.0,0.0,57,0.00,,,0.00,Wunderground v.1.13,2013-03-17 02:42:00,
2013-03-16 22:48:00,66.4,51.2,29.75,NNW,347,0.0,0.0,58,0.00,,,0.00,Wunderground v.1.13,2013-03-17 02:48:00,
2013-03-16 22:54:00,66.0,51.3,29.75,NNW,347,0.0,0.0,59,0.00,,,0.00,Wunderground v.1.13,2013-03-17 02:54:00,
2013-03-16 23:00:00,65.3,51.1,29.75,NNW,347,0.0,0.0,60,0.00,,,0.00,Wunderground v.1.13,2013-03-17 03:00:00,
2013-03-16 23:06:00,64.8,51.0,29.75,NNW,347,0.0,0.0,61,0.00,,,0.00,Wunderground v.1.13,2013-03-17 03:06:00,
2013-03-16 23:12:00,64.3,51.0,29.75,NNW,347,0.0,0.0,62,0.00,,,0.00,Wunderground v.1.13,2013-03-17 03:12:00,
2013-03-16 23:18:00,63.9,51.1,29.75,NNW,347,0.0,0.0,63,0.00,,,0.00,Wunderground v.1.13,2013-03-17 03:18:00,
2013-03-16 23:24:00,63.5,50.7,29.75,NNW,347,0.0,0.0,63,0.00,,,0.00,Wunderground v.1.13,2013-03-17 03:24:00,
2013-03-16 23:30:00,63.2,50.8,29.75,NNW,347,0.0,0.0,64,0.00,,,0.00,Wunderground v.1.13,2013-03-17 03:30:00,
2013-03-16 23:36:00,62.9,51.0,29.75,NNW,347,0.0,0.0,65,0.00,,,0.00,Wunderground v.1.13,2013-03-17 03:36:00,
2013-03-16 23:42:00,62.6,50.7,29.75,NNW,347,0.0,0.0,65,0.00,,,0.00,Wunderground v.1.13,2013-03-17 03:42:00,
2013-03-16 23:48:00,62.3,50.8,29.75,NNW,347,0.0,0.0,66,0.00,,,0.00,Wunderground v.1.13,2013-03-17 03:48:00,
2013-03-16 23:54:00,62.0,50.9,29.75,NNW,347,0.0,0.0,67,0.00,,,0.00,Wunderground v.1.13,2013-03-17 03:54:00,